Terminal Aerodrome Forecast
Issued by NWS Columbia, SC

Home | Current Version | Previous Version | Text Only | Print | Product List | Glossary On
Versions: 1 2 3 4 5 6 7 8 9 10 11 12 13 14 15 16 17 18 19 20 21 22 23 24 25 26 27 28 29
000
FTUS42 KCAE 242300
TAFCAE
TAF
KCAE 242328Z 2500/2524 10006KT P6SM FEW080
     FM250900 13004KT P6SM SCT008 BKN015
     FM251400 22012G20KT P6SM SCT015 BKN045
     FM251800 25017G25KT P6SM SCT100=

USA.gov is the U.S. government's official web portal to all federal, state and local government web resources and services.